| time (UTC) | temp F | wind direction | speed MPH | gust MPH | rain 1hr in | rain 24hr in | rain mn in | humidity % | barometer mb |
| 20260905171522 | 46 | 238 | 0.0 | 0.0 | 0.00 | 0.00 | 0.00 | 87 | 1016.2 |
| 20260905170020 | 44 | 114 | 0.0 | 0.0 | 0.00 | 0.00 | 0.00 | 92 | 1016.3 |
| 20260905164514 | 42 | 114 | 0.0 | 0.0 | 0.00 | 0.00 | 0.00 | 94 | 1016.5 |
| 20260905163010 | 41 | 114 | 0.0 | 0.0 | 0.00 | 0.00 | 0.00 | 95 | 1016.6 |
| 20260905161506 | 40 | 114 | 0.0 | 0.0 | 0.00 | 0.00 | 0.00 | 95 | 1016.8 |
| 20260905160015 | 39 | 113 | 0.0 | 0.0 | 0.00 | 0.00 | 0.00 | 95 | 1016.9 |
| 20260905154508 | 38 | 113 | 0.0 | 0.0 | 0.00 | 0.00 | 0.00 | 95 | 1016.8 |
| 20260905153003 | 37 | 113 | 0.0 | 0.0 | 0.00 | 0.00 | 0.00 | 95 | 1016.7 |
| 20260905151506 | 37 | 113 | 0.0 | 0.0 | 0.00 | 0.00 | 0.00 | 95 | 1016.6 |
| 20260905150002 | 36 | 113 | 0.0 | 0.0 | 0.00 | 0.00 | 0.00 | 95 | 1016.7 |
| 20260905144506 | 36 | 172 | 0.0 | 0.0 | 0.00 | 0.00 | 0.00 | 95 | 1016.8 |
| 20260905143100 | 36 | 172 | 0.0 | 0.0 | 0.00 | 0.00 | 0.00 | 94 | 1016.7 |
| 20260905141612 | 36 | 172 | 0.0 | 0.0 | 0.00 | 0.00 | 0.00 | 94 | 1016.5 |
| 20260905140106 | 36 | 172 | 0.0 | 0.0 | 0.00 | 0.00 | 0.00 | 94 | 1016.5 |
| 20260905134557 | 36 | 172 | 0.0 | 0.0 | 0.00 | 0.00 | 0.00 | 94 | 1016.2 |
| 20260905133055 | 37 | 172 | 0.0 | 0.0 | 0.00 | 0.00 | 0.00 | 94 | 1016.3 |
| 20260905131612 | 37 | 172 | 0.0 | 0.0 | 0.00 | 0.00 | 0.00 | 95 | 1016.2 |
| 20260905130053 | 37 | 173 | 0.0 | 0.0 | 0.00 | 0.00 | 0.00 | 95 | 1016.2 |
| 20260905124552 | 37 | 172 | 0.0 | 0.0 | 0.00 | 0.00 | 0.00 | 95 | 1016.3 |
| 20260905123050 | 37 | 172 | 0.0 | 0.0 | 0.00 | 0.00 | 0.00 | 94 | 1016.2 |
| 20260905121549 | 37 | 172 | 0.0 | 0.0 | 0.00 | 0.00 | 0.00 | 95 | 1016.4 |
| 20260905120048 | 38 | 173 | 0.0 | 0.0 | 0.00 | 0.00 | 0.00 | 94 | 1016.4 |
| 20260905114551 | 38 | 172 | 0.0 | 0.0 | 0.00 | 0.00 | 0.00 | 94 | 1016.2 |
| 20260905113046 | 38 | 172 | 0.0 | 0.0 | 0.00 | 0.00 | 0.00 | 94 | 1016.1 |
| 20260905111545 | 38 | 172 | 0.0 | 0.0 | 0.00 | 0.00 | 0.00 | 94 | 1016.2 |
| 20260905110044 | 38 | 172 | 0.0 | 0.0 | 0.00 | 0.00 | 0.00 | 94 | 1016.1 |
| 20260905104552 | 39 | 172 | 0.0 | 0.0 | 0.00 | 0.00 | 0.00 | 95 | 1016.2 |
| 20260905103048 | 39 | 172 | 0.0 | 0.0 | 0.00 | 0.00 | 0.00 | 95 | 1016.2 |
| 20260905101542 | 39 | 173 | 0.0 | 0.0 | 0.00 | 0.00 | 0.00 | 95 | 1016.1 |
| 20260905100041 | 39 | 172 | 0.0 | 0.0 | 0.00 | 0.00 | 0.00 | 95 | 1016.2 |
| 20260905094542 | 39 | 173 | 0.0 | 0.0 | 0.00 | 0.00 | 0.00 | 94 | 1016.1 |
| 20260905093041 | 39 | 172 | 0.0 | 0.0 | 0.00 | 0.00 | 0.00 | 94 | 1016.2 |
| 20260905091539 | 39 | 172 | 0.0 | 0.0 | 0.00 | 0.00 | 0.00 | 94 | 1016.2 |
| 20260905090050 | 39 | 172 | 0.0 | 0.0 | 0.00 | 0.00 | 0.00 | 94 | 1016.1 |
| 20260905084537 | 39 | 172 | 0.0 | 0.0 | 0.00 | 0.00 | 0.00 | 94 | 1015.8 |
| 20260905083043 | 39 | 172 | 0.0 | 0.0 | 0.00 | 0.00 | 0.00 | 94 | 1015.7 |
| 20260905081531 | 39 | 172 | 0.0 | 0.0 | 0.00 | 0.00 | 0.00 | 94 | 1015.7 |
| 20260905080040 | 39 | 172 | 0.0 | 0.0 | 0.00 | 0.00 | 0.00 | 94 | 1015.5 |
| 20260905074529 | 39 | 172 | 0.0 | 0.0 | 0.00 | 0.00 | 0.00 | 94 | 1015.4 |
| 20260905073027 | 39 | 172 | 0.0 | 0.0 | 0.00 | 0.00 | 0.00 | 94 | 1015.2 |
| 20260905071527 | 38 | 172 | 0.0 | 0.0 | 0.00 | 0.00 | 0.00 | 94 | 1015.2 |
| 20260905070024 | 38 | 172 | 0.0 | 0.0 | 0.00 | 0.00 | 0.00 | 94 | 1015.2 |
| 20260905064523 | 38 | 172 | 0.0 | 0.0 | 0.00 | 0.00 | 0.04 | 93 | 1015.0 |
| 20260905063022 | 38 | 172 | 0.0 | 0.0 | 0.00 | 0.00 | 0.04 | 92 | 1014.9 |
| 20260905061522 | 38 | 172 | 0.0 | 0.0 | 0.00 | 0.00 | 0.04 | 91 | 1014.8 |
| 20260905060025 | 39 | 172 | 0.0 | 0.0 | 0.00 | 0.00 | 0.04 | 90 | 1014.7 |
| 20260905054531 | 40 | 173 | 0.0 | 0.0 | 0.00 | 0.00 | 0.04 | 91 | 1014.8 |
| 20260905053021 | 41 | 172 | 0.0 | 0.0 | 0.00 | 0.00 | 0.04 | 91 | 1014.9 |
| 20260905051528 | 41 | 172 | 0.0 | 0.0 | 0.00 | 0.00 | 0.04 | 91 | 1015.0 |
| 20260905050020 | 41 | 173 | 0.0 | 0.0 | 0.00 | 0.00 | 0.04 | 90 | 1015.0 |
| 20260905044519 | 42 | 173 | 0.0 | 0.0 | 0.00 | 0.00 | 0.04 | 89 | 1014.8 |
| 20260905043016 | 43 | 172 | 0.0 | 0.0 | 0.00 | 0.00 | 0.04 | 88 | 1014.6 |
| 20260905041515 | 44 | 173 | 0.0 | 0.0 | 0.00 | 0.00 | 0.04 | 88 | 1014.3 |
| 20260905040014 | 46 | 173 | 0.0 | 0.0 | 0.00 | 0.00 | 0.04 | 88 | 1014.2 |
| 20260905034513 | 47 | 172 | 0.0 | 0.0 | 0.00 | 0.00 | 0.04 | 87 | 1014.2 |
| 20260905033011 | 48 | 172 | 0.0 | 0.0 | 0.00 | 0.00 | 0.04 | 87 | 1014.1 |
| 20260905031510 | 48 | 172 | 0.0 | 0.0 | 0.00 | 0.00 | 0.04 | 86 | 1013.9 |
| 20260905030009 | 49 | 172 | 0.0 | 0.0 | 0.00 | 0.00 | 0.04 | 85 | 1013.7 |
| 20260905024509 | 49 | 172 | 0.0 | 0.0 | 0.00 | 0.00 | 0.03 | 83 | 1013.8 |
| 20260905023007 | 50 | 190 | 0.0 | 0.0 | 0.00 | 0.00 | 0.03 | 80 | 1013.7 |
| 20260905021505 | 50 | 170 | 0.0 | 0.0 | 0.00 | 0.00 | 0.03 | 78 | 1013.5 |
| 20260905020002 | 51 | 170 | 0.0 | 0.0 | 0.00 | 0.00 | 0.03 | 76 | 1013.2 |
| 20260905014501 | 51 | 123 | 0.0 | 0.0 | 0.00 | 0.00 | 0.03 | 75 | 1013.0 |
| 20260905013000 | 52 | 123 | 0.0 | 0.0 | 0.00 | 0.00 | 0.03 | 73 | 1012.8 |
| 20260905011600 | 53 | 164 | 0.0 | 0.0 | 0.00 | 0.00 | 0.03 | 69 | 1012.6 |
| 20260905010108 | 54 | 182 | 0.0 | 0.0 | 0.00 | 0.00 | 0.03 | 66 | 1012.3 |
| 20260905004559 | 54 | 173 | 0.0 | 0.0 | 0.00 | 0.00 | 0.03 | 63 | 1012.1 |
| 20260905003059 | 54 | 171 | 0.0 | 0.0 | 0.00 | 0.00 | 0.03 | 63 | 1011.9 |
| 20260905001559 | 54 | 176 | 0.0 | 0.0 | 0.00 | 0.00 | 0.03 | 65 | 1011.9 |
| 20260905000105 | 55 | 160 | 0.0 | 0.0 | 0.00 | 0.00 | 0.03 | 65 | 1011.7 |
| 20260904234557 | 56 | 207 | 0.0 | 0.0 | 0.00 | 0.00 | 0.03 | 61 | 1011.7 |
| 20260904233055 | 56 | 198 | 0.0 | 0.0 | 0.00 | 0.00 | 0.03 | 64 | 1011.8 |
| 20260904231554 | 55 | 252 | 0.0 | 0.0 | 0.00 | 0.00 | 0.03 | 64 | 1011.6 |
| 20260904230107 | 53 | 200 | 0.0 | 0.0 | 0.00 | 0.00 | 0.03 | 72 | 1011.7 |
| 20260904224552 | 52 | 200 | 0.0 | 0.0 | 0.00 | 0.00 | 0.03 | 77 | 1011.9 |
| 20260904223059 | 52 | 232 | 0.0 | 0.0 | 0.00 | 0.00 | 0.03 | 80 | 1011.8 |
| 20260904221551 | 52 | 232 | 0.0 | 0.0 | 0.00 | 0.00 | 0.03 | 82 | 1011.8 |
| 20260904220107 | 52 | 232 | 0.0 | 0.0 | 0.00 | 0.00 | 0.02 | 76 | 1012.2 |
| 20260904214550 | 52 | 228 | 0.0 | 0.0 | 0.00 | 0.00 | 0.01 | 72 | 1012.0 |
| 20260904213049 | 52 | 5 | 0.0 | 0.0 | 0.00 | 0.00 | 0.01 | 77 | 1012.1 |
| 20260904211549 | 51 | 188 | 0.0 | 0.0 | 0.00 | 0.00 | 0.01 | 81 | 1011.9 |
| 20260904210050 | 51 | 186 | 0.0 | 0.0 | 0.00 | 0.00 | 0.01 | 79 | 1012.0 |
| 20260904204551 | 53 | 186 | 0.0 | 0.0 | 0.00 | 0.00 | 0.01 | 71 | 1011.9 |
| 20260904203048 | 55 | 191 | 0.0 | 0.0 | 0.00 | 0.00 | 0.01 | 65 | 1011.5 |
| 20260904201552 | 55 | 111 | 0.0 | 0.0 | 0.00 | 0.00 | 0.01 | 67 | 1011.5 |
| 20260904200053 | 54 | 246 | 0.0 | 0.0 | 0.00 | 0.00 | 0.01 | 68 | 1011.7 |
| 20260904194546 | 53 | 195 | 0.0 | 0.0 | 0.00 | 0.00 | 0.01 | 72 | 1012.0 |
| 20260904193035 | 51 | 177 | 1.0 | 0.0 | 0.00 | 0.00 | 0.01 | 78 | 1012.2 |
| 20260904191530 | 49 | 175 | 0.0 | 0.0 | 0.00 | 0.00 | 0.01 | 80 | 1012.5 |
| 20260904190026 | 47 | 126 | 0.0 | 0.0 | 0.00 | 0.00 | 0.01 | 85 | 1012.7 |
| 20260904184533 | 45 | 142 | 0.0 | 0.0 | 0.00 | 0.00 | 0.01 | 87 | 1012.8 |
| 20260904183020 | 44 | 194 | 0.0 | 0.0 | 0.00 | 0.00 | 0.01 | 90 | 1013.0 |
| 20260904181525 | 44 | 194 | 0.0 | 0.0 | 0.00 | 0.00 | 0.01 | 91 | 1012.9 |
| 20260904180022 | 44 | 194 | 0.0 | 0.0 | 0.00 | 0.00 | 0.01 | 91 | 1012.9 |
| 20260904174525 | 43 | 194 | 0.0 | 0.0 | 0.00 | 0.00 | 0.00 | 90 | 1012.9 |
| 20260904173015 | 43 | 188 | 0.0 | 0.0 | 0.00 | 0.00 | 0.00 | 91 | 1012.7 |